{"data":{"norad_id":62159,"intl_designator":"2024-224W","name":"STARLINK-32524","alt_names":[],"object_type":"PAYLOAD","status":"ACTIVE","operator":null,"country":"US","launch_date":"2024-11-30","launch_site_code":"AFETR","launch_vehicle":null,"mission":null,"orbit_class":"UNKNOWN","rcs_meters":null,"size_class":null,"mass_kg":null,"dimensions":null,"purposes":["comms"],"wikipedia_slug":null,"has_3d_model":false,"image_url":null,"decayed_at":null,"tle_current":{"epoch":"2026-05-25T03:36:48.332160Z","epoch_age_seconds":72416,"freshness":"FRESH","line1":"1 62159U 24224W   26145.15055940  .00015321  00000+0  56540-3 0  9998","line2":"2 62159  43.0046  89.7621 0001548 265.7850  94.2825 15.27564476 83970","mean_motion":15.27564476,"eccentricity":0.0001548,"inclination_deg":43.0046,"raan_deg":89.7621,"arg_perigee_deg":265.785,"mean_anomaly_deg":94.2825,"bstar":0.0005654,"rev_number":8397,"period_min":94.267706707262,"perigee_km":482.03346207053,"apogee_km":484.15769967757,"semimajor_km":6861.2325808741,"source":"CELESTRAK","updated_at":"2026-05-25T13:38:19.597527Z"}}}